Probability
0 0 0 0 0 0 0 0 0 0 0 0 2 5 7 12 19 24 30 34 34 30 27 27 32 37 40 40 36 32 29 26 22 17 13 9 5 4 4 5 5 5 5 4
0 0 0 0 0 0 0 0 0 0 1 1 3 5 7 11 16 21 28 34 36 36 35 35 39 42 45 45 40 35 32 28 21 16 11 8 5 4 5 7 7 6 6 5
0 0 0 0 0 0 0 0 0 0 1 3 3 4 6 8 10 14 22 31 37 41 43 46 49 50 52 52 46 40 37 30 22 16 13 10 7 6 5 6 7 7 7 6
0 0 0 0 0 0 0 0 0 0 1 2 2 1 3 6 9 11 17 28 36 41 45 51 54 55 56 56 52 46 41 34 25 19 17 14 11 8 5 4 5 6 7 7
0 0 0 0 0 0 0 0 0 0 0 0 0 0 1 5 10 12 16 24 33 38 43 48 52 55 56 56 55 52 48 41 33 25 20 16 12 8 4 3 4 6 7 7
0 0 0 0 0 0 0 0 0 0 0 0 0 0 0 3 9 11 14 22 31 37 39 41 45 50 54 54 56 56 53 47 39 30 22 17 12 7 4 3 5 7 7 7
0 0 0 0 0 0 0 0 0 0 0 0 0 0 0 2 6 10 13 20 30 36 38 38 42 47 51 52 54 56 55 50 42 32 25 19 14 9 7 6 6 8 8 8
0 0 0 0 0 0 0 0 0 0 0 0 0 0 1 3 6 10 15 21 30 36 38 39 42 46 49 49 50 52 53 51 45 36 28 21 15 11 10 9 9 10 10 9
0 0 0 0 0 0 0 0 0 0 0 0 0 0 2 4 6 9 15 23 30 34 36 36 38 40 44 45 45 47 50 49 45 38 31 23 18 14 13 12 11 11 11 10
0 0 0 0 0 0 0 0 0 0 0 0 0 0 1 3 5 8 13 20 25 29 31 32 32 33 36 40 42 45 46 44 43 39 33 26 21 18 16 14 12 12 11 10
0 0 0 0 0 0 0 0 0 0 0 0 0 0 1 2 5 7 11 15 20 26 29 29 29 30 31 35 41 45 43 41 40 40 36 29 24 20 17 15 13 11 10 11
0 0 0 0 0 0 0 0 0 0 0 0 0 0 0 2 5 9 11 14 19 24 27 27 27 29 31 34 40 44 41 37 35 36 35 31 25 21 18 16 13 9 8 9
0 0 0 0 0 0 0 0 0 0 0 0 0 0 0 1 4 9 14 16 19 24 26 25 26 30 32 35 39 40 37 33 32 32 32 31 26 22 19 17 14 10 8 8
0 0 0 0 0 0 0 0 0 0 0 0 0 0 0 1 3 9 15 19 21 26 28 27 26 28 30 33 37 37 33 32 32 31 29 28 25 22 19 17 15 12 9 8
0 0 0 0 0 0 0 0 0 0 0 0 1 2 2 2 3 9 16 21 25 28 31 29 26 26 28 31 34 33 31 31 30 28 25 23 21 19 17 15 14 13 11 10
0 0 0 0 0 0 0 0 1 1 0 1 5 6 5 5 7 12 17 22 26 30 31 30 27 26 27 28 27 26 25 24 23 22 20 17 15 14 13 12 12 13 12 11
0 0 0 0 0 0 0 0 1 2 1 3 7 9 9 9 12 15 18 22 26 28 27 27 27 26 25 24 22 20 19 18 18 18 16 13 12 13 13 12 11 12 12 13
0 0 0 0 0 0 0 0 1 2 2 4 8 12 14 18 20 19 18 20 23 23 20 21 25 25 24 21 19 18 16 14 15 14 13 12 12 13 14 13 12 12 13 14
0 0 0 0 0 0 0 0 1 1 3 6 10 15 21 27 28 24 19 18 19 18 16 16 20 23 21 17 16 16 14 12 11 11 11 12 13 14 16 17 16 16 16 15
0 0 0 0 0 0 1 2 2 1 3 9 14 18 22 27 28 23 18 15 15 15 14 14 16 18 17 13 12 14 13 11 9 9 9 10 12 14 17 18 19 19 17 15
0 0 0 0 0 1 3 5 3 2 4 9 16 19 19 20 21 18 14 12 13 16 17 17 16 14 12 11 11 12 13 10 8 8 8 8 10 12 14 15 15 15 13 11
0 0 0 0 0 1 4 5 3 2 5 9 14 17 17 17 17 15 13 13 16 19 19 18 16 12 9 9 10 11 11 9 7 6 5 6 7 8 10 10 11 10 9 8
0 0 1 2 2 3 5 5 4 4 7 10 12 14 15 17 16 15 16 18 19 19 18 17 15 11 8 8 9 10 9 8 6 4 4 4 5 6 7 8 8 9 9 9
0 1 3 5 5 6 6 6 5 7 8 10 11 12 14 17 17 16 17 19 18 17 15 14 12 9 8 8 10 9 9 8 7 6 5 5 4 4 4 5 5 7 8 8
0 1 3 5 6 7 8 7 7 9 10 10 11 12 14 18 18 16 15 15 15 15 15 13 11 9 8 10 10 9 9 8 7 6 5 5 4 3 2 2 2 2 4 4
1 2 3 4 5 7 8 7 7 9 11 11 11 12 15 18 18 16 13 12 13 15 16 16 13 9 8 10 10 8 8 7 6 5 4 4 4 3 2 2 1 0 1 1
Wind_Speed
3 3 5 7 6 6 3 4 5 7 6 2 5 7 9 11 11 11 13 14 14 14 12 12 13 13 13 12 11 11 11 10 7 5 4 4 4 4 3 3 5 5 5 5
1 5 8 6 5 5 6 6 7 9 6 2 4 6 7 8 10 13 15 16 16 12 11 13 13 13 13 13 13 12 12 11 9 6 4 3 4 3 4 4 4 5 6 6
8 6 7 7 6 6 7 7 8 8 7 1 3 2 4 5 6 9 12 14 14 17 18 16 15 14 13 13 15 13 12 11 9 8 4 3 3 2 2 3 4 4 5 5
7 8 6 8 9 7 8 9 8 7 2 3 3 2 6 5 4 6 9 11 13 14 15 16 15 15 15 14 13 12 12 11 10 9 7 7 6 5 5 4 4 4 5 5
7 7 9 10 12 10 9 8 5 4 2 1 1 3 7 2 4 6 9 13 13 14 16 17 17 17 15 13 13 11 11 10 10 9 9 8 6 4 3 3 5 5 4 4
9 7 8 11 11 10 8 2 3 4 4 0 3 3 5 4 7 6 8 11 13 13 14 14 13 12 11 11 11 11 11 10 10 10 9 9 8 6 6 5 5 5 3 4
6 8 7 6 5 5 4 4 3 4 4 4 3 2 7 7 5 6 7 9 12 13 14 14 14 13 13 13 13 12 13 11 11 11 10 9 9 9 9 7 7 6 4 4
5 7 7 6 8 7 6 10 9 5 4 4 3 3 7 6 3 2 4 6 9 11 12 14 15 14 14 14 14 14 14 12 11 11 10 9 8 7 6 7 6 7 5 5
6 7 6 6 6 9 6 5 9 8 2 1 3 5 6 4 4 3 3 4 6 9 11 13 13 12 12 13 14 14 14 11 11 11 9 8 8 8 7 7 6 5 5 5
6 4 6 5 2 4 9 8 6 7 5 2 3 3 4 4 2 2 1 3 5 8 10 10 11 12 11 11 11 12 12 12 11 11 10 9 8 8 7 6 7 6 6 6
5 4 5 1 4 6 3 4 6 5 6 7 2 6 6 6 4 3 2 3 5 7 10 10 9 9 10 9 9 10 10 10 10 10 9 9 8 8 7 7 7 7 6 7
5 5 3 6 6 6 6 7 8 6 3 5 4 7 5 5 3 1 2 2 5 6 8 9 8 8 8 9 9 9 9 10 9 9 8 8 8 8 8 8 7 7 7 7
5 6 1 6 6 2 2 3 5 7 6 5 5 6 3 2 2 2 3 3 4 5 7 7 6 7 8 8 9 9 9 9 8 8 8 8 8 8 8 8 7 7 7 6
6 5 7 9 7 3 2 3 3 6 5 5 6 6 4 4 4 3 2 3 5 6 7 7 6 6 7 7 8 9 8 8 8 8 8 8 7 7 7 7 7 7 7 7
5 4 3 4 3 2 2 3 2 4 7 8 8 9 10 9 8 5 4 4 5 6 7 8 7 6 6 6 7 8 7 7 8 8 7 8 7 6 6 6 6 6 6 7
4 3 1 1 1 1 2 3 2 2 3 4 6 5 6 5 4 3 4 6 6 6 7 7 7 7 7 7 7 7 7 7 7 7 6 5 5 5 6 6 5 5 5 5
2 4 3 2 3 2 3 3 1 1 2 6 7 7 4 5 5 5 5 5 5 4 4 5 6 5 6 6 7 7 7 7 7 6 6 5 5 5 6 6 5 5 5 5
4 4 3 1 2 4 7 2 1 1 0 2 4 6 8 9 6 4 3 5 5 4 3 4 4 4 4 4 5 6 6 6 6 5 5 5 5 5 5 5 5 5 4 4
6 6 4 3 3 3 3 2 1 1 2 1 6 8 8 9 8 5 3 5 5 4 5 5 5 5 5 5 5 6 6 5 6 5 5 5 5 5 5 5 5 4 3 3
4 6 5 4 4 4 5 5 3 3 1 1 6 10 9 8 6 2 1 5 6 5 5 5 5 5 6 5 5 7 6 5 5 4 4 4 4 4 5 5 4 3 3 3
3 2 4 4 3 4 4 7 2 3 4 2 4 8 7 5 6 6 5 6 6 6 6 6 6 5 4 4 6 6 5 4 3 3 4 4 4 4 4 4 3 3 3 4
3 3 3 4 3 5 5 3 2 3 1 2 4 6 8 8 8 7 7 7 6 6 6 6 6 5 3 4 6 6 4 3 3 4 4 4 3 3 4 4 3 4 4 4
1 3 4 4 4 1 1 1 1 2 3 3 5 6 10 10 8 8 7 7 7 7 6 4 6 5 4 4 5 5 3 3 4 5 4 4 4 3 4 4 4 4 4 3
3 2 3 3 2 2 3 4 5 4 4 4 7 8 9 11 9 8 6 6 7 6 5 4 6 5 4 3 4 4 3 4 5 5 4 4 5 4 4 3 3 3 3 3
2 2 2 2 2 3 4 5 5 6 7 8 8 8 8 11 10 8 7 6 6 6 4 5 5 5 4 3 3 3 4 5 6 5 5 5 5 5 5 5 4 4 3 2
1 1 2 3 4 3 1 2 5 7 7 8 8 9 8 8 9 8 7 6 6 6 5 6 6 5 4 4 4 3 3 5 6 5 5 4 4 4 5 6 6 10 8 8
Wind_Direction
195 134 215 225 203 208 243 280 280 272 265 213 200 199 195 184 179 178 177 178 181 186 179 171 170 168 165 166 166 167 163 164 157 155 154 152 161 164 165 171 168 169 167 162
115 233 225 226 238 244 260 271 276 286 276 209 198 212 207 191 186 184 181 182 182 175 171 174 171 171 173 173 172 171 169 168 169 168 163 158 154 165 171 171 175 181 177 171
192 229 211 221 238 243 255 236 246 261 298 340 133 264 227 228 201 189 180 178 180 178 178 178 175 177 176 177 177 176 172 169 170 163 151 142 122 117 147 171 184 193 185 178
228 240 220 216 232 221 251 243 232 248 256 271 136 201 263 233 239 199 184 179 184 186 180 178 176 178 181 181 177 172 170 170 171 167 169 169 173 179 188 180 183 190 191 183
232 218 214 221 228 216 226 241 234 242 192 284 2 150 269 253 237 227 196 187 189 186 181 180 181 182 181 176 173 171 169 172 174 175 177 178 183 185 169 166 175 187 192 188
237 242 211 217 228 216 216 257 347 35 77 251 251 160 261 230 218 223 206 190 183 180 181 180 178 172 171 171 171 170 172 178 178 178 180 183 181 177 170 178 181 188 191 194
265 257 241 220 222 239 182 112 37 3 18 249 270 161 245 251 230 206 199 196 186 181 178 174 171 171 172 174 175 174 177 183 183 182 185 188 185 181 185 186 187 186 189 196
215 261 239 213 191 195 191 146 157 181 208 273 333 239 260 276 254 201 168 186 181 181 176 175 178 177 176 177 178 178 181 185 184 185 188 187 184 185 189 188 187 192 194 196
196 245 257 226 193 167 178 172 165 135 139 79 296 294 307 350 9 21 90 125 167 175 174 176 174 174 176 178 181 181 182 184 186 188 186 186 186 187 190 189 188 191 190 190
179 233 266 242 205 192 171 163 112 121 144 211 292 281 262 291 311 342 82 186 184 175 169 173 174 177 179 181 180 178 181 186 187 187 189 191 190 189 188 184 191 193 193 191
170 188 290 299 195 203 160 134 121 128 146 149 217 264 229 217 215 204 238 202 168 172 171 170 173 175 171 168 169 173 180 183 186 189 191 190 188 186 183 188 196 195 191 188
178 143 235 255 244 192 171 172 146 148 186 153 164 256 249 202 215 208 246 184 155 164 161 159 165 163 161 166 170 173 178 181 187 188 185 190 189 186 189 195 198 194 192 194
159 131 122 327 332 354 156 179 154 138 128 148 164 253 237 170 205 203 184 158 157 155 149 144 150 159 163 169 173 176 177 182 181 179 177 184 187 188 195 197 194 193 194 195
128 122 160 194 214 202 214 236 156 130 147 186 201 215 242 210 208 199 171 150 149 152 144 144 156 161 166 171 172 173 175 175 174 174 175 183 191 193 194 194 193 195 195 195
102 143 182 207 206 152 216 249 209 169 180 178 199 193 212 203 195 184 162 135 129 145 144 153 164 166 166 168 167 165 167 170 170 169 178 190 191 189 188 189 192 192 192 196
65 121 134 306 318 26 321 312 277 219 180 170 157 207 219 178 151 146 149 135 140 156 156 155 157 165 168 170 171 165 165 168 162 167 177 181 180 182 187 190 190 187 192 195
57 93 100 252 299 28 288 270 223 215 179 159 178 208 182 139 142 160 153 131 122 129 136 144 151 162 170 171 166 161 159 157 157 165 173 177 180 182 190 190 182 184 188 185
132 103 119 149 78 217 242 247 170 157 238 165 162 165 154 141 132 106 107 119 116 118 124 125 127 131 141 138 135 140 137 145 152 157 162 167 173 183 182 174 177 179 177 177
148 135 121 129 166 257 292 314 297 141 317 331 148 142 135 125 91 53 67 114 125 129 123 128 133 130 122 121 127 124 123 132 140 150 160 167 169 169 165 164 171 169 162 163
102 115 121 132 150 218 254 283 286 117 298 320 136 142 145 132 121 169 113 101 102 98 108 117 116 106 113 121 124 122 126 132 145 158 160 157 158 156 159 160 155 147 146 148
65 86 139 156 175 246 277 297 14 135 225 239 145 138 134 128 145 149 123 101 100 105 105 106 107 104 115 124 120 119 121 138 155 145 135 130 138 147 149 142 136 135 134 128
161 152 170 147 165 244 328 20 96 215 228 125 102 111 108 107 110 108 104 102 99 92 90 102 105 102 108 117 118 117 125 132 119 118 114 116 120 131 127 127 131 130 134 136
112 180 170 167 183 216 30 100 218 140 112 109 104 116 118 112 111 103 96 98 94 92 91 94 104 100 92 105 118 122 132 117 108 105 105 105 101 94 106 119 128 123 127 131
333 15 93 95 92 77 50 47 42 71 90 90 104 111 114 113 109 106 100 95 91 87 90 95 101 100 95 91 100 117 120 111 105 110 110 110 106 97 89 90 98 112 125 132
290 6 64 92 108 67 35 35 52 66 69 77 85 95 104 109 108 107 101 98 94 86 80 89 100 101 96 91 88 96 114 112 104 104 105 103 104 108 95 81 67 80 70 117
281 171 170 203 204 158 164 79 81 89 85 91 98 90 89 101 105 100 98 93 89 83 76 76 81 86 82 79 76 74 94 111 113 108 104 103 107 110 110 106 84 60 70 73